Time,TemperatureF,DewpointF,PressureIn,WindDirection,WindDirectionDegrees,WindSpeedMPH,WindSpeedGustMPH,Humidity,HourlyPrecipIn,Conditions,Clouds,dailyrainin,SoftwareType,DateUTC
2013-09-23 00:01:00,58.3,54.7,29.92,North,0,0.0,0.0,88,0.00,,,0.58,meteohub,2013-09-23 04:01:00,
2013-09-23 00:02:00,58.3,54.7,29.92,North,0,0.0,0.0,88,0.00,,,0.58,meteohub,2013-09-23 04:02:00,
2013-09-23 00:07:00,58.3,54.7,29.92,North,0,0.0,0.0,88,0.00,,,0.00,meteohub,2013-09-23 04:07:00,
2013-09-23 00:12:00,58.1,54.5,29.92,North,0,0.0,0.0,88,0.00,,,0.00,meteohub,2013-09-23 04:12:00,
2013-09-23 00:17:00,58.1,54.5,29.92,North,0,0.0,0.0,88,0.00,,,0.00,meteohub,2013-09-23 04:17:00,
2013-09-23 00:22:00,58.1,54.5,29.92,North,0,0.0,0.0,88,0.00,,,0.00,meteohub,2013-09-23 04:22:00,
2013-09-23 00:27:00,58.1,54.5,29.92,North,0,0.0,0.0,88,0.00,,,0.00,meteohub,2013-09-23 04:27:00,
2013-09-23 00:32:00,57.9,54.3,29.92,North,0,0.0,0.0,88,0.00,,,0.00,meteohub,2013-09-23 04:32:00,
2013-09-23 00:37:00,57.9,54.3,29.92,North,0,0.0,0.0,88,0.00,,,0.00,meteohub,2013-09-23 04:37:00,
2013-09-23 00:42:00,57.9,54.3,29.92,North,0,0.0,0.0,88,0.00,,,0.00,meteohub,2013-09-23 04:42:00,
2013-09-23 00:47:00,57.7,54.5,29.92,North,0,0.0,0.0,89,0.00,,,0.00,meteohub,2013-09-23 04:47:00,
2013-09-23 00:52:00,57.6,54.3,29.92,North,0,0.0,0.0,89,0.00,,,0.00,meteohub,2013-09-23 04:52:00,
2013-09-23 00:58:00,57.6,54.3,29.92,North,0,0.0,0.0,89,0.00,,,0.00,meteohub,2013-09-23 04:58:00,
2013-09-23 01:03:00,57.6,54.7,29.92,North,0,0.0,0.0,90,0.00,,,0.00,meteohub,2013-09-23 05:03:00,
2013-09-23 01:08:00,57.9,55.0,29.92,North,0,0.0,0.0,90,0.00,,,0.00,meteohub,2013-09-23 05:08:00,
2013-09-23 01:13:00,58.1,55.4,29.92,North,0,0.0,0.0,91,0.00,,,0.00,meteohub,2013-09-23 05:13:00,
2013-09-23 01:18:00,58.5,55.8,29.92,North,0,0.0,0.0,91,0.00,,,0.00,meteohub,2013-09-23 05:18:00,
2013-09-23 01:23:00,58.6,55.9,29.92,North,0,0.0,0.0,91,0.00,,,0.00,meteohub,2013-09-23 05:23:00,
2013-09-23 01:28:00,58.8,56.1,29.92,North,0,0.0,0.0,91,0.00,,,0.00,meteohub,2013-09-23 05:28:00,
2013-09-23 01:33:00,59.0,56.1,29.92,North,0,0.0,0.0,90,0.00,,,0.00,meteohub,2013-09-23 05:33:00,
2013-09-23 01:38:00,59.2,56.3,29.92,North,0,0.0,0.0,90,0.00,,,0.00,meteohub,2013-09-23 05:38:00,
2013-09-23 01:43:00,59.2,55.9,29.95,North,0,0.0,0.0,89,0.00,,,0.00,meteohub,2013-09-23 05:43:00,
2013-09-23 01:48:00,59.2,55.6,29.95,North,0,0.0,0.0,88,0.00,,,0.00,meteohub,2013-09-23 05:48:00,
2013-09-23 01:53:00,59.4,55.8,29.95,North,0,0.0,0.0,88,0.00,,,0.00,meteohub,2013-09-23 05:53:00,
2013-09-23 01:58:00,59.2,55.4,29.95,North,0,0.0,0.0,87,0.00,,,0.00,meteohub,2013-09-23 05:58:00,
2013-09-23 02:03:00,59.2,54.7,29.95,North,0,0.0,0.0,85,0.00,,,0.00,meteohub,2013-09-23 06:03:00,
2013-09-23 02:08:00,59.2,54.3,29.95,North,0,0.0,0.0,84,0.00,,,0.00,meteohub,2013-09-23 06:08:00,
2013-09-23 02:14:00,59.0,53.8,29.95,North,0,0.0,0.0,83,0.00,,,0.00,meteohub,2013-09-23 06:14:00,
2013-09-23 02:19:00,58.8,53.6,29.95,North,0,0.0,0.0,83,0.00,,,0.00,meteohub,2013-09-23 06:19:00,
2013-09-23 02:24:00,58.8,53.6,29.95,North,0,0.0,0.0,83,0.00,,,0.00,meteohub,2013-09-23 06:24:00,
2013-09-23 02:28:00,58.8,53.6,29.95,North,0,0.0,0.0,83,0.00,,,0.00,meteohub,2013-09-23 06:28:00,
2013-09-23 02:34:00,58.6,53.2,29.95,North,0,0.0,0.0,82,0.00,,,0.00,meteohub,2013-09-23 06:34:00,
2013-09-23 02:39:00,58.6,53.2,29.95,NNE,22,3.0,0.0,82,0.00,,,0.00,meteohub,2013-09-23 06:39:00,
2013-09-23 02:44:00,58.8,53.4,29.95,ENE,68,0.0,0.0,82,0.00,,,0.00,meteohub,2013-09-23 06:44:00,
2013-09-23 02:49:00,58.8,53.1,29.95,ENE,68,0.0,4.0,81,0.00,,,0.00,meteohub,2013-09-23 06:49:00,
2013-09-23 02:54:00,58.8,52.7,29.95,NNW,338,0.0,4.0,80,0.00,,,0.00,meteohub,2013-09-23 06:54:00,
2013-09-23 02:59:00,58.6,52.5,29.95,NNW,338,0.0,2.0,80,0.00,,,0.00,meteohub,2013-09-23 06:59:00,
2013-09-23 03:04:00,58.8,52.0,29.95,ENE,68,3.0,3.0,78,0.00,,,0.00,meteohub,2013-09-23 07:04:00,
2013-09-23 03:09:00,58.6,51.4,29.95,NNE,22,0.0,6.0,77,0.00,,,0.00,meteohub,2013-09-23 07:09:00,
2013-09-23 03:14:00,58.5,50.9,29.95,SSW,202,0.0,6.0,76,0.00,,,0.00,meteohub,2013-09-23 07:14:00,
2013-09-23 03:19:00,58.5,50.2,29.95,ENE,68,3.0,6.0,74,0.00,,,0.00,meteohub,2013-09-23 07:19:00,
2013-09-23 03:24:00,58.3,49.6,29.95,SW,225,0.0,5.0,73,0.00,,,0.00,meteohub,2013-09-23 07:24:00,
2013-09-23 03:29:00,57.9,49.3,29.95,ESE,112,0.0,5.0,73,0.00,,,0.00,meteohub,2013-09-23 07:29:00,
2013-09-23 03:34:00,57.9,48.9,29.95,NNE,22,3.0,5.0,72,0.00,,,0.00,meteohub,2013-09-23 07:34:00,
2013-09-23 03:39:00,57.6,48.6,29.95,NE,45,3.0,5.0,72,0.00,,,0.00,meteohub,2013-09-23 07:39:00,
2013-09-23 03:44:00,57.6,48.6,29.95,NNW,338,2.0,5.0,72,0.00,,,0.00,meteohub,2013-09-23 07:44:00,
2013-09-23 03:49:00,57.2,48.2,29.95,NNW,338,0.0,4.0,72,0.00,,,0.00,meteohub,2013-09-23 07:49:00,
2013-09-23 03:54:00,57.0,48.0,29.95,North,0,0.0,4.0,72,0.00,,,0.00,meteohub,2013-09-23 07:54:00,
2013-09-23 03:59:00,56.8,48.2,29.95,ENE,68,0.0,4.0,73,0.00,,,0.00,meteohub,2013-09-23 07:59:00,
2013-09-23 04:04:00,56.8,48.2,29.95,North,0,0.0,4.0,73,0.00,,,0.00,meteohub,2013-09-23 08:04:00,
2013-09-23 04:09:00,56.7,47.7,29.95,ENE,68,0.0,4.0,72,0.00,,,0.00,meteohub,2013-09-23 08:09:00,
2013-09-23 04:14:00,56.5,47.5,29.95,NE,45,0.0,3.0,72,0.00,,,0.00,meteohub,2013-09-23 08:14:00,
2013-09-23 04:19:00,56.3,47.5,29.95,ENE,68,0.0,3.0,72,0.00,,,0.00,meteohub,2013-09-23 08:19:00,
2013-09-23 04:25:00,55.9,47.1,29.95,NE,45,0.0,3.0,72,0.00,,,0.00,meteohub,2013-09-23 08:25:00,
2013-09-23 04:30:00,55.8,46.9,29.95,ENE,68,0.0,0.0,72,0.00,,,0.00,meteohub,2013-09-23 08:30:00,
2013-09-23 04:35:00,55.6,47.1,29.95,NNE,22,0.0,0.0,73,0.00,,,0.00,meteohub,2013-09-23 08:35:00,
2013-09-23 04:40:00,55.4,47.3,29.95,ESE,112,0.0,4.0,74,0.00,,,0.00,meteohub,2013-09-23 08:40:00,
2013-09-23 04:44:00,55.4,47.3,29.98,North,0,0.0,4.0,74,0.00,,,0.00,meteohub,2013-09-23 08:44:00,
2013-09-23 04:49:00,55.2,47.5,29.98,NW,315,0.0,4.0,75,0.00,,,0.00,meteohub,2013-09-23 08:49:00,
2013-09-23 04:55:00,55.0,47.3,29.98,NNE,22,0.0,4.0,75,0.00,,,0.00,meteohub,2013-09-23 08:55:00,
2013-09-23 05:00:00,55.0,47.3,29.98,WSW,248,0.0,4.0,75,0.00,,,0.00,meteohub,2013-09-23 09:00:00,
2013-09-23 05:05:00,54.9,47.1,29.98,WSW,248,0.0,4.0,75,0.00,,,0.00,meteohub,2013-09-23 09:05:00,
2013-09-23 05:10:00,54.7,46.9,29.98,WSW,248,0.0,4.0,75,0.00,,,0.00,meteohub,2013-09-23 09:10:00,
2013-09-23 05:15:00,54.5,47.1,29.98,WSW,248,0.0,3.0,76,0.00,,,0.00,meteohub,2013-09-23 09:15:00,
2013-09-23 05:20:00,54.1,46.8,29.98,WSW,248,0.0,0.0,76,0.00,,,0.00,meteohub,2013-09-23 09:20:00,
2013-09-23 05:25:00,54.1,47.1,29.98,ENE,68,0.0,0.0,77,0.00,,,0.00,meteohub,2013-09-23 09:25:00,
2013-09-23 05:30:00,54.1,47.1,29.98,NE,45,3.0,4.0,77,0.00,,,0.00,meteohub,2013-09-23 09:30:00,
2013-09-23 05:35:00,54.0,47.3,29.98,North,0,0.0,4.0,78,0.00,,,0.00,meteohub,2013-09-23 09:35:00,
2013-09-23 05:40:00,54.0,47.3,29.98,ESE,112,0.0,4.0,78,0.00,,,0.00,meteohub,2013-09-23 09:40:00,
2013-09-23 05:45:00,54.0,47.3,29.98,NNW,338,0.0,3.0,78,0.00,,,0.00,meteohub,2013-09-23 09:45:00,
2013-09-23 05:50:00,54.0,47.3,29.98,NNW,338,0.0,3.0,78,0.00,,,0.00,meteohub,2013-09-23 09:50:00,
2013-09-23 05:55:00,53.8,47.1,29.98,ENE,68,0.0,2.0,78,0.00,,,0.00,meteohub,2013-09-23 09:55:00,
2013-09-23 06:00:00,54.0,47.3,29.98,ENE,68,0.0,2.0,78,0.00,,,0.00,meteohub,2013-09-23 10:00:00,
2013-09-23 06:05:00,53.8,47.1,29.98,North,0,0.0,0.0,78,0.00,,,0.00,meteohub,2013-09-23 10:05:00,
2013-09-23 06:10:00,54.0,47.3,29.98,East,90,0.0,3.0,78,0.00,,,0.00,meteohub,2013-09-23 10:10:00,
2013-09-23 06:15:00,54.1,47.1,30.01,North,0,0.0,3.0,77,0.00,,,0.00,meteohub,2013-09-23 10:15:00,
2013-09-23 06:20:00,54.3,46.9,30.01,North,0,0.0,3.0,76,0.00,,,0.00,meteohub,2013-09-23 10:20:00,
2013-09-23 06:25:00,54.3,46.9,30.01,North,0,0.0,3.0,76,0.00,,,0.00,meteohub,2013-09-23 10:25:00,
2013-09-23 06:30:00,54.5,47.1,30.01,North,0,0.0,3.0,76,0.00,,,0.00,meteohub,2013-09-23 10:30:00,
2013-09-23 06:35:00,54.5,46.8,30.01,NNW,338,0.0,3.0,75,0.00,,,0.00,meteohub,2013-09-23 10:35:00,
2013-09-23 06:40:00,54.7,46.6,30.01,NNW,338,0.0,0.0,74,0.00,,,0.00,meteohub,2013-09-23 10:40:00,
2013-09-23 06:45:00,54.5,46.4,30.01,North,0,0.0,3.0,74,0.00,,,0.00,meteohub,2013-09-23 10:45:00,
2013-09-23 06:50:00,54.5,46.4,30.01,North,0,0.0,3.0,74,0.00,,,0.00,meteohub,2013-09-23 10:50:00,
2013-09-23 06:55:00,54.3,46.6,30.01,North,0,0.0,0.0,75,0.00,,,0.00,meteohub,2013-09-23 10:55:00,
2013-09-23 07:00:00,54.3,46.9,30.01,North,0,0.0,0.0,76,0.00,,,0.00,meteohub,2013-09-23 11:00:00,
2013-09-23 07:05:00,54.3,47.3,30.01,NE,45,0.0,0.0,77,0.00,,,0.00,meteohub,2013-09-23 11:05:00,
2013-09-23 07:10:00,54.1,47.5,30.01,NNE,22,0.0,0.0,78,0.00,,,0.00,meteohub,2013-09-23 11:10:00,
2013-09-23 07:15:00,53.6,47.7,30.01,NNE,22,0.0,3.0,80,0.00,,,0.00,meteohub,2013-09-23 11:15:00,
2013-09-23 07:20:00,53.4,47.7,30.01,NNE,22,0.0,3.0,81,0.00,,,0.00,meteohub,2013-09-23 11:20:00,
2013-09-23 07:25:00,53.2,48.2,30.01,NNE,22,0.0,3.0,83,0.00,,,0.00,meteohub,2013-09-23 11:25:00,
2013-09-23 07:30:00,53.1,48.4,30.04,NNE,22,0.0,3.0,84,0.00,,,0.00,meteohub,2013-09-23 11:30:00,
2013-09-23 07:35:00,53.2,48.6,30.04,ESE,112,0.0,3.0,84,0.00,,,0.00,meteohub,2013-09-23 11:35:00,
2013-09-23 07:40:00,53.4,49.1,30.04,SSE,158,0.0,0.0,85,0.00,,,0.00,meteohub,2013-09-23 11:40:00,
2013-09-23 07:45:00,53.6,49.3,30.04,ESE,112,0.0,0.0,85,0.00,,,0.00,meteohub,2013-09-23 11:45:00,
2013-09-23 07:50:00,53.6,49.3,30.04,ESE,112,0.0,0.0,85,0.00,,,0.00,meteohub,2013-09-23 11:50:00,
2013-09-23 07:55:00,54.0,49.6,30.04,SE,135,2.0,0.0,85,0.00,,,0.00,meteohub,2013-09-23 11:55:00,
2013-09-23 08:00:00,54.1,49.5,30.04,SE,135,0.0,4.0,84,0.00,,,0.00,meteohub,2013-09-23 12:00:00,
2013-09-23 08:05:00,54.5,49.1,30.04,SSE,158,0.0,6.0,82,0.00,,,0.00,meteohub,2013-09-23 12:05:00,
2013-09-23 08:10:00,54.7,48.6,30.04,ESE,112,0.0,6.0,80,0.00,,,0.00,meteohub,2013-09-23 12:10:00,
2013-09-23 08:15:00,55.0,48.6,30.04,NW,315,0.0,6.0,79,0.00,,,0.00,meteohub,2013-09-23 12:15:00,
2013-09-23 08:21:00,55.2,48.7,30.04,NW,315,0.0,3.0,79,0.00,,,0.00,meteohub,2013-09-23 12:21:00,
2013-09-23 08:26:00,55.9,48.2,30.04,NNW,338,0.0,7.0,75,0.00,,,0.00,meteohub,2013-09-23 12:26:00,
2013-09-23 08:31:00,56.3,47.5,30.04,NW,315,0.0,7.0,72,0.00,,,0.00,meteohub,2013-09-23 12:31:00,
2013-09-23 08:36:00,56.5,46.8,30.04,ESE,112,3.0,7.0,70,0.00,,,0.00,meteohub,2013-09-23 12:36:00,
2013-09-23 08:41:00,56.8,46.8,30.04,NNE,22,5.0,7.0,69,0.00,,,0.00,meteohub,2013-09-23 12:41:00,
2013-09-23 08:46:00,57.2,45.9,30.04,NE,45,6.0,8.0,66,0.00,,,0.00,meteohub,2013-09-23 12:46:00,
2013-09-23 08:51:00,57.6,45.9,30.04,ESE,112,4.0,8.0,65,0.00,,,0.00,meteohub,2013-09-23 12:51:00,
2013-09-23 08:56:00,57.7,45.7,30.04,NNW,338,5.0,8.0,64,0.00,,,0.00,meteohub,2013-09-23 12:56:00,
2013-09-23 09:01:00,58.1,45.5,30.04,SSW,202,3.0,7.0,63,0.00,,,0.00,meteohub,2013-09-23 13:01:00,
2013-09-23 09:06:00,58.3,45.0,30.04,SW,225,4.0,6.0,61,0.00,,,0.00,meteohub,2013-09-23 13:06:00,
2013-09-23 09:11:00,59.0,45.1,30.04,ESE,112,4.0,6.0,60,0.00,,,0.00,meteohub,2013-09-23 13:11:00,
2013-09-23 09:16:00,59.5,45.1,30.04,NNW,338,3.0,6.0,59,0.00,,,0.00,meteohub,2013-09-23 13:16:00,
2013-09-23 09:21:00,59.7,43.0,30.04,ESE,112,3.0,9.0,54,0.00,,,0.00,meteohub,2013-09-23 13:21:00,
2013-09-23 09:26:00,60.3,44.4,30.07,NW,315,3.0,9.0,56,0.00,,,0.00,meteohub,2013-09-23 13:26:00,
2013-09-23 09:31:00,60.4,43.2,30.07,NNW,338,4.0,9.0,53,0.00,,,0.00,meteohub,2013-09-23 13:31:00,
2013-09-23 09:36:00,60.4,43.2,30.07,NNW,338,4.0,8.0,53,0.00,,,0.00,meteohub,2013-09-23 13:36:00,
2013-09-23 09:41:00,60.8,44.1,30.07,ESE,112,3.0,8.0,54,0.00,,,0.00,meteohub,2013-09-23 13:41:00,
2013-09-23 09:46:00,61.0,42.3,30.07,NNW,338,5.0,6.0,50,0.00,,,0.00,meteohub,2013-09-23 13:46:00,
2013-09-23 09:51:00,61.0,42.3,30.07,SSW,202,2.0,6.0,50,0.00,,,0.00,meteohub,2013-09-23 13:51:00,
2013-09-23 09:56:00,61.2,41.4,30.07,ENE,68,0.0,6.0,48,0.00,,,0.00,meteohub,2013-09-23 13:56:00,
2013-09-23 10:01:00,61.7,41.9,30.07,NNE,22,3.0,6.0,48,0.00,,,0.00,meteohub,2013-09-23 14:01:00,
2013-09-23 10:06:00,61.9,41.4,30.07,NNE,22,3.0,8.0,47,0.00,,,0.00,meteohub,2013-09-23 14:06:00,
2013-09-23 10:11:00,61.9,41.9,30.07,SE,135,0.0,8.0,48,0.00,,,0.00,meteohub,2013-09-23 14:11:00,
2013-09-23 10:16:00,62.2,41.7,30.07,ENE,68,4.0,8.0,47,0.00,,,0.00,meteohub,2013-09-23 14:16:00,
2013-09-23 10:21:00,62.4,41.4,30.07,NNE,22,3.0,8.0,46,0.00,,,0.00,meteohub,2013-09-23 14:21:00,
2013-09-23 10:26:00,62.6,40.5,30.07,NW,315,3.0,8.0,44,0.00,,,0.00,meteohub,2013-09-23 14:26:00,
2013-09-23 10:31:00,63.0,41.4,30.07,ESE,112,3.0,6.0,45,0.00,,,0.00,meteohub,2013-09-23 14:31:00,
2013-09-23 10:36:00,63.3,42.3,30.07,ESE,112,3.0,6.0,46,0.00,,,0.00,meteohub,2013-09-23 14:36:00,
2013-09-23 10:41:00,63.5,41.2,30.07,North,0,3.0,6.0,44,0.00,,,0.00,meteohub,2013-09-23 14:41:00,
2013-09-23 10:46:00,63.7,41.9,30.07,SW,225,4.0,6.0,45,0.00,,,0.00,meteohub,2013-09-23 14:46:00,
2013-09-23 10:51:00,63.9,42.1,30.07,ENE,68,3.0,6.0,45,0.00,,,0.00,meteohub,2013-09-23 14:51:00,
2013-09-23 10:56:00,64.0,40.5,30.07,WNW,292,4.0,7.0,42,0.00,,,0.00,meteohub,2013-09-23 14:56:00,
2013-09-23 11:01:00,64.4,40.1,30.07,SSE,158,4.0,7.0,41,0.00,,,0.00,meteohub,2013-09-23 15:01:00,
2013-09-23 11:07:00,64.8,40.5,30.07,North,0,4.0,7.0,41,0.00,,,0.00,meteohub,2013-09-23 15:07:00,
2013-09-23 11:12:00,65.3,39.7,30.07,NNW,338,2.0,6.0,39,0.00,,,0.00,meteohub,2013-09-23 15:12:00,
2013-09-23 11:17:00,65.8,40.8,30.07,SE,135,3.0,6.0,40,0.00,,,0.00,meteohub,2013-09-23 15:17:00,
2013-09-23 11:22:00,66.2,41.7,30.07,SW,225,2.0,5.0,41,0.00,,,0.00,meteohub,2013-09-23 15:22:00,
2013-09-23 11:27:00,66.7,42.3,30.07,ESE,112,0.0,5.0,41,0.00,,,0.00,meteohub,2013-09-23 15:27:00,
2013-09-23 11:32:00,66.4,39.9,30.07,NNW,338,3.0,5.0,38,0.00,,,0.00,meteohub,2013-09-23 15:32:00,
2013-09-23 11:36:00,66.4,39.9,30.07,NE,45,3.0,6.0,38,0.00,,,0.00,meteohub,2013-09-23 15:36:00,
2013-09-23 11:41:00,66.2,39.2,30.07,ENE,68,3.0,6.0,37,0.00,,,0.00,meteohub,2013-09-23 15:41:00,
2013-09-23 11:47:00,66.6,40.1,30.07,SE,135,5.0,7.0,38,0.00,,,0.00,meteohub,2013-09-23 15:47:00,
2013-09-23 11:52:00,66.6,39.6,30.07,ESE,112,5.0,7.0,37,0.00,,,0.00,meteohub,2013-09-23 15:52:00,
2013-09-23 11:57:00,66.7,39.6,30.07,NW,315,4.0,7.0,37,0.00,,,0.00,meteohub,2013-09-23 15:57:00,
2013-09-23 12:02:00,66.9,39.7,30.07,NNW,338,4.0,6.0,37,0.00,,,0.00,meteohub,2013-09-23 16:02:00,
2013-09-23 12:07:00,67.3,40.1,30.07,East,90,3.0,8.0,37,0.00,,,0.00,meteohub,2013-09-23 16:07:00,
2013-09-23 12:12:00,67.8,39.9,30.07,NNW,338,4.0,8.0,36,0.00,,,0.00,meteohub,2013-09-23 16:12:00,
2013-09-23 12:17:00,68.2,39.6,30.07,WNW,292,4.0,9.0,35,0.00,,,0.00,meteohub,2013-09-23 16:17:00,
2013-09-23 12:22:00,69.1,40.3,30.07,ENE,68,4.0,9.0,35,0.00,,,0.00,meteohub,2013-09-23 16:22:00,
2013-09-23 12:27:00,69.6,40.8,30.07,ESE,112,3.0,9.0,35,0.00,,,0.00,meteohub,2013-09-23 16:27:00,
2013-09-23 12:32:00,70.0,41.0,30.07,SSE,158,3.0,5.0,35,0.00,,,0.00,meteohub,2013-09-23 16:32:00,
2013-09-23 12:37:00,70.2,40.5,30.07,WNW,292,0.0,7.0,34,0.00,,,0.00,meteohub,2013-09-23 16:37:00,
2013-09-23 12:42:00,70.5,40.8,30.07,NE,45,3.0,7.0,34,0.00,,,0.00,meteohub,2013-09-23 16:42:00,
2013-09-23 12:47:00,70.2,41.2,30.07,NNE,22,5.0,9.0,35,0.00,,,0.00,meteohub,2013-09-23 16:47:00,
2013-09-23 12:52:00,69.4,40.6,30.07,ENE,68,5.0,9.0,35,0.00,,,0.00,meteohub,2013-09-23 16:52:00,
2013-09-23 12:57:00,69.4,39.9,30.07,NNW,338,3.0,9.0,34,0.00,,,0.00,meteohub,2013-09-23 16:57:00,
2013-09-23 13:02:00,69.1,40.3,30.07,WNW,292,3.0,8.0,35,0.00,,,0.00,meteohub,2013-09-23 17:02:00,
2013-09-23 13:07:00,69.6,39.9,30.07,NNW,338,4.0,8.0,34,0.00,,,0.00,meteohub,2013-09-23 17:07:00,
2013-09-23 13:12:00,70.3,40.6,30.07,SW,225,3.0,6.0,34,0.00,,,0.00,meteohub,2013-09-23 17:12:00,
2013-09-23 13:17:00,70.2,39.7,30.07,SSW,202,0.0,6.0,33,0.00,,,0.00,meteohub,2013-09-23 17:17:00,
2013-09-23 13:22:00,70.9,40.3,30.07,SW,225,3.0,6.0,33,0.00,,,0.00,meteohub,2013-09-23 17:22:00,
2013-09-23 13:27:00,71.1,41.4,30.07,ESE,112,4.0,6.0,34,0.00,,,0.00,meteohub,2013-09-23 17:27:00,
2013-09-23 13:32:00,70.7,40.1,30.07,ESE,112,2.0,5.0,33,0.00,,,0.00,meteohub,2013-09-23 17:32:00,
2013-09-23 13:37:00,71.8,41.9,30.07,NW,315,2.0,5.0,34,0.00,,,0.00,meteohub,2013-09-23 17:37:00,
2013-09-23 13:42:00,73.2,42.4,30.04,SE,135,3.0,4.0,33,0.00,,,0.00,meteohub,2013-09-23 17:42:00,
2013-09-23 13:47:00,73.6,41.9,30.04,NE,45,6.0,6.0,32,0.00,,,0.00,meteohub,2013-09-23 17:47:00,
2013-09-23 13:52:00,73.6,41.9,30.04,SSE,158,0.0,6.0,32,0.00,,,0.00,meteohub,2013-09-23 17:52:00,
2013-09-23 13:57:00,73.4,41.0,30.04,NNE,22,4.0,6.0,31,0.00,,,0.00,meteohub,2013-09-23 17:57:00,
2013-09-23 14:02:00,74.1,42.4,30.04,SSE,158,4.0,6.0,32,0.00,,,0.00,meteohub,2013-09-23 18:02:00,
2013-09-23 14:07:00,74.3,42.6,30.04,NNW,338,3.0,6.0,32,0.00,,,0.00,meteohub,2013-09-23 18:07:00,
2013-09-23 14:12:00,73.6,41.0,30.04,NNE,22,3.0,6.0,31,0.00,,,0.00,meteohub,2013-09-23 18:12:00,
2013-09-23 14:17:00,72.9,42.1,30.04,ESE,112,2.0,5.0,33,0.00,,,0.00,meteohub,2013-09-23 18:17:00,
2013-09-23 14:21:00,71.8,41.2,30.04,NNW,338,3.0,5.0,33,0.00,,,0.00,meteohub,2013-09-23 18:21:00,
2013-09-23 14:27:00,71.8,41.2,30.04,NNW,338,0.0,5.0,33,0.00,,,0.00,meteohub,2013-09-23 18:27:00,
2013-09-23 14:32:00,71.4,40.8,30.04,ENE,68,5.0,5.0,33,0.00,,,0.00,meteohub,2013-09-23 18:32:00,
2013-09-23 14:37:00,71.4,40.1,30.04,NNW,338,3.0,6.0,32,0.00,,,0.00,meteohub,2013-09-23 18:37:00,
2013-09-23 14:42:00,72.0,40.5,30.04,ENE,68,3.0,6.0,32,0.00,,,0.00,meteohub,2013-09-23 18:42:00,
2013-09-23 14:47:00,72.1,41.4,30.04,NE,45,4.0,6.0,33,0.00,,,0.00,meteohub,2013-09-23 18:47:00,
2013-09-23 14:52:00,72.0,41.4,30.04,NE,45,2.0,5.0,33,0.00,,,0.00,meteohub,2013-09-23 18:52:00,
2013-09-23 14:57:00,72.0,41.4,30.04,NNE,22,4.0,5.0,33,0.00,,,0.00,meteohub,2013-09-23 18:57:00,
2013-09-23 15:02:00,72.0,40.5,30.04,WNW,292,0.0,6.0,32,0.00,,,0.00,meteohub,2013-09-23 19:02:00,
2013-09-23 15:07:00,72.9,41.4,30.04,NNW,338,0.0,6.0,32,0.00,,,0.00,meteohub,2013-09-23 19:07:00,
2013-09-23 15:12:00,72.9,41.4,30.04,ENE,68,0.0,6.0,32,0.00,,,0.00,meteohub,2013-09-23 19:12:00,
2013-09-23 15:17:00,71.6,40.1,30.04,NNE,22,3.0,4.0,32,0.00,,,0.00,meteohub,2013-09-23 19:17:00,
2013-09-23 15:22:00,71.1,42.1,30.04,East,90,0.0,5.0,35,0.00,,,0.00,meteohub,2013-09-23 19:22:00,
2013-09-23 15:27:00,70.2,39.7,30.04,West,270,0.0,5.0,33,0.00,,,0.00,meteohub,2013-09-23 19:27:00,
2013-09-23 15:32:00,70.2,40.5,30.04,ENE,68,2.0,5.0,34,0.00,,,0.00,meteohub,2013-09-23 19:32:00,
2013-09-23 15:37:00,71.2,41.4,30.04,ENE,68,0.0,5.0,34,0.00,,,0.00,meteohub,2013-09-23 19:37:00,
2013-09-23 15:42:00,70.9,41.2,30.04,NE,45,2.0,4.0,34,0.00,,,0.00,meteohub,2013-09-23 19:42:00,
2013-09-23 15:47:00,71.8,41.2,30.04,NE,45,4.0,5.0,33,0.00,,,0.00,meteohub,2013-09-23 19:47:00,
2013-09-23 15:52:00,73.6,42.6,30.04,NNE,22,6.0,6.0,33,0.00,,,0.00,meteohub,2013-09-23 19:52:00,
2013-09-23 15:56:00,74.8,43.0,30.04,NE,45,2.0,6.0,32,0.00,,,0.00,meteohub,2013-09-23 19:56:00,
2013-09-23 16:01:00,74.1,42.4,30.04,NNE,22,3.0,6.0,32,0.00,,,0.00,meteohub,2013-09-23 20:01:00,
2013-09-23 16:06:00,73.4,41.7,30.04,NNE,22,0.0,6.0,32,0.00,,,0.00,meteohub,2013-09-23 20:06:00,
2013-09-23 16:12:00,72.3,41.5,30.04,North,0,3.0,6.0,33,0.00,,,0.00,meteohub,2013-09-23 20:12:00,
2013-09-23 16:17:00,70.7,41.0,30.04,NE,45,3.0,4.0,34,0.00,,,0.00,meteohub,2013-09-23 20:17:00,
2013-09-23 16:22:00,70.5,41.5,30.04,NE,45,2.0,5.0,35,0.00,,,0.00,meteohub,2013-09-23 20:22:00,
2013-09-23 16:27:00,70.5,42.3,30.04,NE,45,0.0,5.0,36,0.00,,,0.00,meteohub,2013-09-23 20:27:00,
2013-09-23 16:32:00,72.1,43.0,30.04,NNW,338,0.0,5.0,35,0.00,,,0.00,meteohub,2013-09-23 20:32:00,
2013-09-23 16:37:00,73.4,41.7,30.04,NE,45,2.0,4.0,32,0.00,,,0.00,meteohub,2013-09-23 20:37:00,
2013-09-23 16:42:00,74.3,42.6,30.04,NNW,338,3.0,4.0,32,0.00,,,0.00,meteohub,2013-09-23 20:42:00,
2013-09-23 16:47:00,74.8,43.9,30.04,WSW,248,3.0,4.0,33,0.00,,,0.00,meteohub,2013-09-23 20:47:00,
2013-09-23 16:52:00,75.0,43.2,30.04,NE,45,4.0,4.0,32,0.00,,,0.00,meteohub,2013-09-23 20:52:00,
2013-09-23 16:57:00,74.3,41.7,30.04,NNE,22,3.0,5.0,31,0.00,,,0.00,meteohub,2013-09-23 20:57:00,
2013-09-23 17:02:00,72.9,41.4,30.04,NE,45,3.0,5.0,32,0.00,,,0.00,meteohub,2013-09-23 21:02:00,
2013-09-23 17:07:00,70.9,41.2,30.04,NNW,338,2.0,5.0,34,0.00,,,0.00,meteohub,2013-09-23 21:07:00,
2013-09-23 17:12:00,70.5,41.5,30.04,NNW,338,0.0,4.0,35,0.00,,,0.00,meteohub,2013-09-23 21:12:00,
2013-09-23 17:17:00,72.3,46.6,30.04,NNW,338,0.0,4.0,40,0.00,,,0.00,meteohub,2013-09-23 21:17:00,
2013-09-23 17:22:00,73.4,41.7,30.04,WSW,248,3.0,3.0,32,0.00,,,0.00,meteohub,2013-09-23 21:22:00,
2013-09-23 17:27:00,73.2,41.5,30.04,WSW,248,0.0,3.0,32,0.00,,,0.00,meteohub,2013-09-23 21:27:00,
2013-09-23 17:32:00,72.9,41.4,30.04,WSW,248,0.0,3.0,32,0.00,,,0.00,meteohub,2013-09-23 21:32:00,
2013-09-23 17:37:00,70.5,41.5,30.04,WSW,248,0.0,3.0,35,0.00,,,0.00,meteohub,2013-09-23 21:37:00,
2013-09-23 17:42:00,70.0,42.4,30.04,WSW,248,0.0,2.0,37,0.00,,,0.00,meteohub,2013-09-23 21:42:00,
2013-09-23 17:47:00,69.3,43.9,30.04,WSW,248,0.0,0.0,40,0.00,,,0.00,meteohub,2013-09-23 21:47:00,
2013-09-23 17:52:00,68.9,44.8,30.04,WSW,248,0.0,0.0,42,0.00,,,0.00,meteohub,2013-09-23 21:52:00,
2013-09-23 17:57:00,68.9,43.5,30.04,WSW,248,0.0,0.0,40,0.00,,,0.00,meteohub,2013-09-23 21:57:00,
2013-09-23 18:02:00,68.5,45.1,30.04,WSW,248,0.0,3.0,43,0.00,,,0.00,meteohub,2013-09-23 22:02:00,
2013-09-23 18:07:00,68.0,45.3,30.04,WSW,248,0.0,3.0,44,0.00,,,0.00,meteohub,2013-09-23 22:07:00,
2013-09-23 18:12:00,67.6,46.0,30.04,WSW,248,0.0,3.0,46,0.00,,,0.00,meteohub,2013-09-23 22:12:00,
2013-09-23 18:17:00,67.5,47.1,30.04,WSW,248,0.0,0.0,48,0.00,,,0.00,meteohub,2013-09-23 22:17:00,
2013-09-23 18:22:00,66.9,47.7,30.04,WSW,248,0.0,0.0,50,0.00,,,0.00,meteohub,2013-09-23 22:22:00,
2013-09-23 18:27:00,66.6,48.9,30.04,WSW,248,0.0,0.0,53,0.00,,,0.00,meteohub,2013-09-23 22:27:00,
2013-09-23 18:32:00,66.2,49.6,30.04,WSW,248,0.0,0.0,55,0.00,,,0.00,meteohub,2013-09-23 22:32:00,
2013-09-23 18:37:00,65.7,50.0,30.04,WSW,248,0.0,0.0,57,0.00,,,0.00,meteohub,2013-09-23 22:37:00,
2013-09-23 18:42:00,65.5,51.3,30.04,WSW,248,0.0,0.0,60,0.00,,,0.00,meteohub,2013-09-23 22:42:00,
2013-09-23 18:47:00,64.9,51.1,30.04,WSW,248,0.0,0.0,61,0.00,,,0.00,meteohub,2013-09-23 22:47:00,
2013-09-23 18:52:00,64.6,51.3,30.04,WSW,248,0.0,0.0,62,0.00,,,0.00,meteohub,2013-09-23 22:52:00,
2013-09-23 18:57:00,64.0,52.0,30.04,WSW,248,0.0,0.0,65,0.00,,,0.00,meteohub,2013-09-23 22:57:00,
2013-09-23 19:02:00,63.7,52.5,30.04,WSW,248,0.0,0.0,67,0.00,,,0.00,meteohub,2013-09-23 23:02:00,
2013-09-23 19:07:00,63.3,52.5,30.04,WSW,248,0.0,0.0,68,0.00,,,0.00,meteohub,2013-09-23 23:07:00,
2013-09-23 19:12:00,63.0,52.7,30.04,WSW,248,0.0,0.0,69,0.00,,,0.00,meteohub,2013-09-23 23:12:00,
2013-09-23 19:17:00,62.4,52.5,30.04,WSW,248,0.0,0.0,70,0.00,,,0.00,meteohub,2013-09-23 23:17:00,
2013-09-23 19:22:00,62.1,52.9,30.04,WSW,248,0.0,0.0,72,0.00,,,0.00,meteohub,2013-09-23 23:22:00,
2013-09-23 19:27:00,61.7,53.2,30.04,WSW,248,0.0,0.0,74,0.00,,,0.00,meteohub,2013-09-23 23:27:00,
2013-09-23 19:32:00,61.3,53.8,30.04,WSW,248,0.0,0.0,76,0.00,,,0.00,meteohub,2013-09-23 23:32:00,
2013-09-23 19:37:00,61.0,53.8,30.04,WSW,248,0.0,0.0,77,0.00,,,0.00,meteohub,2013-09-23 23:37:00,
2013-09-23 19:42:00,60.6,53.8,30.04,WSW,248,0.0,0.0,78,0.00,,,0.00,meteohub,2013-09-23 23:42:00,
2013-09-23 19:47:00,60.4,53.6,30.04,WSW,248,0.0,0.0,78,0.00,,,0.00,meteohub,2013-09-23 23:47:00,
2013-09-23 19:52:00,60.3,53.8,30.04,WSW,248,0.0,0.0,79,0.00,,,0.00,meteohub,2013-09-23 23:52:00,
2013-09-23 19:57:00,59.9,53.8,30.04,WSW,248,0.0,0.0,80,0.00,,,0.00,meteohub,2013-09-23 23:57:00,
2013-09-23 20:02:00,59.5,53.8,30.04,WSW,248,0.0,0.0,81,0.00,,,0.00,meteohub,2013-09-24 00:02:00,
2013-09-23 20:07:00,59.2,53.4,30.04,WSW,248,0.0,0.0,81,0.00,,,0.00,meteohub,2013-09-24 00:07:00,
2013-09-23 20:12:00,59.0,53.6,30.04,WSW,248,0.0,0.0,82,0.00,,,0.00,meteohub,2013-09-24 00:12:00,
2013-09-23 20:17:00,58.8,53.6,30.04,WSW,248,0.0,0.0,83,0.00,,,0.00,meteohub,2013-09-24 00:17:00,
2013-09-23 20:22:00,58.5,53.2,30.04,WSW,248,0.0,0.0,83,0.00,,,0.00,meteohub,2013-09-24 00:22:00,
2013-09-23 20:27:00,58.3,53.4,30.07,WSW,248,0.0,0.0,84,0.00,,,0.00,meteohub,2013-09-24 00:27:00,
2013-09-23 20:32:00,58.3,53.8,30.07,WSW,248,0.0,0.0,85,0.00,,,0.00,meteohub,2013-09-24 00:32:00,
2013-09-23 20:37:00,58.1,53.6,30.07,WSW,248,0.0,0.0,85,0.00,,,0.00,meteohub,2013-09-24 00:37:00,
2013-09-23 20:42:00,57.9,53.8,30.07,WSW,248,0.0,0.0,86,0.00,,,0.00,meteohub,2013-09-24 00:42:00,
2013-09-23 20:47:00,57.6,53.4,30.07,WSW,248,0.0,0.0,86,0.00,,,0.00,meteohub,2013-09-24 00:47:00,
2013-09-23 20:52:00,57.4,53.2,30.07,WSW,248,0.0,0.0,86,0.00,,,0.00,meteohub,2013-09-24 00:52:00,
2013-09-23 20:57:00,57.2,53.4,30.07,WSW,248,0.0,0.0,87,0.00,,,0.00,meteohub,2013-09-24 00:57:00,
2013-09-23 21:02:00,57.2,53.4,30.07,WSW,248,0.0,0.0,87,0.00,,,0.00,meteohub,2013-09-24 01:02:00,
2013-09-23 21:07:00,57.0,53.4,30.07,WSW,248,0.0,0.0,88,0.00,,,0.00,meteohub,2013-09-24 01:07:00,
2013-09-23 21:12:00,56.8,53.2,30.07,WSW,248,0.0,0.0,88,0.00,,,0.00,meteohub,2013-09-24 01:12:00,
2013-09-23 21:17:00,56.7,53.4,30.07,WSW,248,0.0,0.0,89,0.00,,,0.00,meteohub,2013-09-24 01:17:00,
2013-09-23 21:22:00,56.5,53.2,30.07,WSW,248,0.0,0.0,89,0.00,,,0.00,meteohub,2013-09-24 01:22:00,
2013-09-23 21:27:00,56.5,53.2,30.07,WSW,248,0.0,0.0,89,0.00,,,0.00,meteohub,2013-09-24 01:27:00,
2013-09-23 21:32:00,56.3,53.4,30.07,WSW,248,0.0,0.0,90,0.00,,,0.00,meteohub,2013-09-24 01:32:00,
2013-09-23 21:37:00,56.3,53.4,30.07,WSW,248,0.0,0.0,90,0.00,,,0.00,meteohub,2013-09-24 01:37:00,
2013-09-23 21:42:00,56.1,53.2,30.07,WSW,248,0.0,0.0,90,0.00,,,0.00,meteohub,2013-09-24 01:42:00,
2013-09-23 21:47:00,55.9,53.4,30.07,WSW,248,0.0,0.0,91,0.00,,,0.00,meteohub,2013-09-24 01:47:00,
2013-09-23 21:52:00,55.9,53.4,30.07,WSW,248,0.0,0.0,91,0.00,,,0.00,meteohub,2013-09-24 01:52:00,
2013-09-23 21:57:00,55.9,53.4,30.07,WSW,248,0.0,0.0,91,0.00,,,0.00,meteohub,2013-09-24 01:57:00,
2013-09-23 22:02:00,55.9,53.6,30.07,WSW,248,0.0,0.0,92,0.00,,,0.00,meteohub,2013-09-24 02:02:00,
2013-09-23 22:07:00,55.8,53.4,30.07,WSW,248,0.0,0.0,92,0.00,,,0.00,meteohub,2013-09-24 02:07:00,
2013-09-23 22:13:00,55.8,53.4,30.07,WSW,248,0.0,0.0,92,0.00,,,0.00,meteohub,2013-09-24 02:13:00,
2013-09-23 22:18:00,55.6,53.2,30.07,WSW,248,0.0,0.0,92,0.00,,,0.00,meteohub,2013-09-24 02:18:00,
2013-09-23 22:23:00,55.4,53.1,30.07,WSW,248,0.0,0.0,92,0.00,,,0.00,meteohub,2013-09-24 02:23:00,
2013-09-23 22:28:00,55.2,53.2,30.07,WSW,248,0.0,0.0,93,0.00,,,0.00,meteohub,2013-09-24 02:28:00,
2013-09-23 22:33:00,55.2,53.2,30.07,WSW,248,0.0,0.0,93,0.00,,,0.00,meteohub,2013-09-24 02:33:00,
2013-09-23 22:38:00,55.0,53.4,30.07,WSW,248,0.0,0.0,94,0.00,,,0.00,meteohub,2013-09-24 02:38:00,
2013-09-23 22:43:00,55.0,53.4,30.07,WSW,248,0.0,0.0,94,0.00,,,0.00,meteohub,2013-09-24 02:43:00,
2013-09-23 22:48:00,55.4,53.8,30.07,WSW,248,0.0,0.0,94,0.00,,,0.00,meteohub,2013-09-24 02:48:00,
2013-09-23 22:53:00,55.0,53.6,30.07,WSW,248,0.0,0.0,95,0.00,,,0.00,meteohub,2013-09-24 02:53:00,
2013-09-23 22:58:00,55.0,53.6,30.10,WSW,248,0.0,0.0,95,0.00,,,0.00,meteohub,2013-09-24 02:58:00,
2013-09-23 23:03:00,55.0,53.6,30.10,WSW,248,0.0,0.0,95,0.00,,,0.00,meteohub,2013-09-24 03:03:00,
2013-09-23 23:08:00,55.2,53.8,30.10,WSW,248,0.0,0.0,95,0.00,,,0.00,meteohub,2013-09-24 03:08:00,
2013-09-23 23:13:00,55.0,53.6,30.07,WSW,248,0.0,0.0,95,0.00,,,0.00,meteohub,2013-09-24 03:13:00,
2013-09-23 23:18:00,54.9,53.4,30.07,WSW,248,0.0,0.0,95,0.00,,,0.00,meteohub,2013-09-24 03:18:00,
2013-09-23 23:23:00,54.7,53.2,30.07,WSW,248,0.0,0.0,95,0.00,,,0.00,meteohub,2013-09-24 03:23:00,
2013-09-23 23:28:00,54.5,53.1,30.10,WSW,248,0.0,0.0,95,0.00,,,0.00,meteohub,2013-09-24 03:28:00,
2013-09-23 23:33:00,54.5,53.1,30.10,WSW,248,0.0,0.0,95,0.00,,,0.00,meteohub,2013-09-24 03:33:00,
2013-09-23 23:38:00,54.5,53.1,30.10,WSW,248,0.0,0.0,95,0.00,,,0.00,meteohub,2013-09-24 03:38:00,
2013-09-23 23:43:00,54.5,53.1,30.10,WSW,248,0.0,0.0,95,0.00,,,0.00,meteohub,2013-09-24 03:43:00,
2013-09-23 23:48:00,54.3,53.2,30.10,WSW,248,0.0,0.0,96,0.00,,,0.00,meteohub,2013-09-24 03:48:00,
2013-09-23 23:53:00,54.3,53.2,30.10,WSW,248,0.0,0.0,96,0.00,,,0.00,meteohub,2013-09-24 03:53:00,
2013-09-23 23:58:00,54.3,53.2,30.10,WSW,248,0.0,0.0,96,0.00,,,0.00,meteohub,2013-09-24 03:58:00,